sat.trackr.live / text

‹ back to catalog

YAOGAN-30 09B

NORAD 48424 · 2021-039B

PAYLOAD ACTIVE UNKNOWN

§ Identity

Operator
Country
PRC
Launch date
2021-05-06
Launch site
XICLF
Launch vehicle
Mass (kg)
RCS (m²)

External: N2YO · Heavens-Above · Gunter

§ Orbital elements

Epoch: 2026-09-12T04:00:45.533952Z

Period
95.81 min
Inclination
34.9949°
Eccentricity
0.0004715
Mean motion
15.02993430 rev/d
Perigee alt
554.4 km
Apogee alt
560.9 km
Semi-major
6,935.8 km
B*
1.3755e-4
RAAN
220.7837°
Arg perigee
231.9206°
Mean anomaly
128.1078°
Rev number
29,263

§ Raw data

YAOGAN-30 09B1 48424U 21039B   26255.16719368  .00001859  00000+0  13755-3 0  99942 48424  34.9949 220.7837 0004715 231.9206 128.1078 15.02993430292636

JSON: /api/v1/satellites/48424 · /tle

For live sub-satellite position, see the globe view (requires WebGL).

§ Visibility from observer

Set your observer location to see the next 7 days of passes ≥ 10°. The values pass through the URL so the page stays shareable.

No JS? Fill the form by hand. The geolocation button needs JavaScript.